Monument Pass, CO

9:55 AM MDT on July 24, 2017 (GMT -0600)
Monument Pass

Weather History for KMNH - October, 2013

Change the Weather History Date:

Thursday, October 10, 2013

  Actual Average Record
Temperature  
Mean Temperature 48 °F -  
Max Temperature 62 °F - 79 °F (2015)
Min Temperature 33 °F - 21 °F (2001)
Degree Days  
Heating Degree Days 18    
Month to date heating degree days  
Cooling Degree Days 0    
Month to date cooling degree days  
Moisture  
Dew Point 35 °F    
Average Humidity 72    
Maximum Humidity 100    
Minimum Humidity 34    
Precipitation  
Precipitation 0.04 in - 0.24 in (2005)
Sea Level Pressure  
Sea Level Pressure 29.80 in    
Wind  
Wind Speed 10 mph (SSW)    
Max Wind Speed 24 mph    
Max Gust Speed 39 mph    
Visibility 9 miles    
Events Rain    
T = Trace of Precipitation, MM = Missing Value Source: NWS Daily Summary

Daily Weather History Graph

Daily Weather History Graph

Search for Another Location

Airport or City:

Trip Planner

Search our weather history database for the weather conditions in past years. The results will help you decide how hot, cold, wet, or windy it might be!

Date:

Astronomy

Oct. 10, 2013 Rise Set
Actual Time 7:03 AM MDT 6:26 PM MDT
Civil Twilight 6:36 AM MDT 6:53 PM MDT
Nautical Twilight 6:05 AM MDT 7:24 PM MDT
Astronomical Twilight 5:34 AM MDT 7:55 PM MDT
Moon 12:55 PM MDT (10/10) 11:08 PM MDT (10/10)
Length of Visible Light 12h 16m
Length of Day
11h 23m
Waxing Crescent, 36% of the Moon is Illuminated
Oct 10
Waxing Crescent
Oct 11
First Quarter
Oct 18
Full
Oct 26
Last Quarter
Nov 3
New

Hourly Weather History & Observations

Time (MDT) Temp. Windchill Dew Point Humidity Pressure Visibility Wind Dir Wind Speed Gust Speed Precip Events Conditions
12:13 AM 37.4 °F 32.8 °F 35.6 °F 93% 30.02 in 10.0 mi West 5.8 mph - N/A   Clear
12:33 AM 35.6 °F 29.9 °F 33.8 °F 93% 30.03 in 10.0 mi West 6.9 mph - N/A   Clear
12:53 AM 35.6 °F 30.7 °F 33.8 °F 93% 30.02 in 10.0 mi West 5.8 mph - N/A   Clear
1:13 AM 33.8 °F 29.6 °F 33.8 °F 100% 30.02 in 7.0 mi WSW 4.6 mph - N/A   Clear
1:33 AM 35.6 °F 30.7 °F 33.8 °F 93% 30.01 in 7.0 mi WSW 5.8 mph - N/A   Clear
1:53 AM 35.6 °F 30.7 °F 33.8 °F 93% 30.01 in 5.0 mi West 5.8 mph - N/A   Clear
2:12 AM 35.6 °F 31.7 °F 35.6 °F 100% 30.00 in 5.0 mi West 4.6 mph - N/A   Clear
2:33 AM 35.6 °F 32.8 °F 35.6 °F 100% 29.99 in 3.0 mi WNW 3.5 mph - N/A   Clear
2:53 AM 35.6 °F - 35.6 °F 100% 29.97 in 2.5 mi Calm Calm - N/A   Clear
3:13 AM 35.6 °F 32.8 °F 33.8 °F 93% 29.97 in 2.0 mi SW 3.5 mph - N/A   Clear
3:33 AM 35.6 °F 31.7 °F 33.8 °F 93% 29.97 in 1.8 mi SW 4.6 mph - N/A   Mist
3:53 AM 35.6 °F 31.7 °F 35.6 °F 100% 29.97 in 1.8 mi SSW 4.6 mph - N/A   Mist
4:13 AM 35.6 °F 31.7 °F 35.6 °F 100% 29.95 in 2.5 mi SSW 4.6 mph - N/A   Clear
4:33 AM 33.8 °F 29.6 °F 33.8 °F 100% 29.95 in 3.0 mi SSW 4.6 mph - N/A   Clear
4:52 AM 35.6 °F 31.7 °F 33.8 °F 93% 29.95 in 4.0 mi South 4.6 mph - N/A   Clear
5:13 AM 35.6 °F 32.8 °F 33.8 °F 93% 29.93 in 4.0 mi South 3.5 mph - N/A   Clear
5:33 AM 37.4 °F 32.1 °F 37.4 °F 100% 29.93 in 5.0 mi SSE 6.9 mph - N/A   Clear
5:53 AM 37.4 °F 33.8 °F 35.6 °F 93% 29.92 in 7.0 mi South 4.6 mph - N/A   Clear
6:13 AM 35.6 °F 30.7 °F 35.6 °F 100% 29.92 in 10.0 mi South 5.8 mph - N/A   Clear
6:31 AM 37.4 °F 29.8 °F 37.4 °F 100% 29.92 in 10.0 mi SSE 11.5 mph - N/A   Clear
6:53 AM 39.2 °F 30.8 °F 35.6 °F 87% 29.91 in 10.0 mi SSE 15.0 mph - N/A   Clear
7:12 AM 41.0 °F 33.1 °F 35.6 °F 81% 29.91 in 10.0 mi SSE 15.0 mph - N/A   Clear
7:33 AM 41.0 °F 33.9 °F 35.6 °F 81% 29.91 in 10.0 mi South 12.7 mph - N/A   Clear
7:52 AM 41.0 °F 33.9 °F 35.6 °F 81% 29.91 in 10.0 mi South 12.7 mph - N/A   Clear
8:07 AM 42.8 °F 35.8 °F 37.4 °F 81% 29.90 in 10.0 mi South 13.8 mph - N/A   Clear
8:33 AM 46.4 °F 40.4 °F 37.4 °F 71% 29.89 in 10.0 mi South 13.8 mph - N/A   Clear
8:53 AM 50.0 °F - 37.4 °F 62% 29.89 in 10.0 mi SSE 13.8 mph - N/A   Clear
9:13 AM 50.0 °F - 37.4 °F 62% 29.87 in 10.0 mi South 12.7 mph - N/A   Clear
9:32 AM 51.8 °F - 37.4 °F 58% 29.87 in 10.0 mi SSE 15.0 mph 20.7 mph N/A   Clear
9:53 AM 51.8 °F - 35.6 °F 54% 29.86 in 10.0 mi SSE 13.8 mph - N/A   Clear
10:13 AM 53.6 °F - 37.4 °F 54% 29.85 in 10.0 mi SSE 17.3 mph - N/A   Clear
10:33 AM 55.4 °F - 37.4 °F 51% 29.83 in 10.0 mi SSE 19.6 mph - N/A   Clear
10:53 AM 57.2 °F - 37.4 °F 48% 29.83 in 10.0 mi South 18.4 mph 24.2 mph N/A   Clear
11:13 AM 59.0 °F - 37.4 °F 45% 29.82 in 10.0 mi South 20.7 mph 27.6 mph N/A   Clear
11:32 AM 59.0 °F - 35.6 °F 42% 29.81 in 10.0 mi South 21.9 mph 29.9 mph N/A   Clear
11:53 AM 59.0 °F - 37.4 °F 45% 29.79 in 10.0 mi SSE 21.9 mph 28.8 mph N/A   Clear
12:12 PM 59.0 °F - 37.4 °F 45% 29.78 in 10.0 mi SSE 23.0 mph 27.6 mph N/A   Clear
12:33 PM 60.8 °F - 37.4 °F 42% 29.76 in 10.0 mi SSE 23.0 mph 26.5 mph N/A   Clear
12:53 PM 60.8 °F - 35.6 °F 39% 29.74 in 10.0 mi SSE 24.2 mph 29.9 mph N/A   Clear
1:13 PM 59.0 °F - 35.6 °F 42% 29.72 in 10.0 mi South 24.2 mph 32.2 mph N/A   Clear
1:33 PM 60.8 °F - 35.6 °F 39% 29.71 in 10.0 mi South 21.9 mph 33.4 mph N/A   Clear
1:52 PM 62.6 °F - 33.8 °F 34% 29.71 in 10.0 mi South 20.7 mph 27.6 mph N/A   Clear
2:13 PM 60.8 °F - 33.8 °F 36% 29.70 in 10.0 mi South 19.6 mph 23.0 mph N/A   Clear
2:33 PM 59.0 °F - 33.8 °F 39% 29.69 in 10.0 mi SW 15.0 mph 20.7 mph N/A   Mostly Cloudy
2:53 PM 55.4 °F - 32.0 °F 41% 29.71 in 10.0 mi South 17.3 mph 33.4 mph N/A Rain Rain
3:13 PM 53.6 °F - 32.0 °F 44% 29.70 in 10.0 mi South 8.1 mph 18.4 mph N/A Rain Light Rain
3:33 PM 53.6 °F - 32.0 °F 44% 29.70 in 10.0 mi SSW 17.3 mph 27.6 mph N/A   Light Drizzle
3:53 PM 48.2 °F - 35.6 °F 62% 29.69 in 7.0 mi SW 12.7 mph 26.5 mph N/A Rain Rain
4:12 PM 46.4 °F 40.4 °F 37.4 °F 71% 29.70 in 10.0 mi SSW 13.8 mph 18.4 mph 0.01 in Rain Light Rain
4:32 PM 46.4 °F 40.4 °F 41.0 °F 81% 29.70 in 10.0 mi SSW 13.8 mph 18.4 mph 0.02 in   Light Drizzle
4:53 PM 42.8 °F 33.3 °F 37.4 °F 81% 29.73 in 5.0 mi WSW 24.2 mph 39.1 mph 0.03 in Rain Light Rain
5:13 PM 41.0 °F 32.5 °F 35.6 °F 81% 29.71 in 10.0 mi SW 17.3 mph 24.2 mph 0.01 in Rain Light Rain
5:33 PM 42.8 °F 37.0 °F 35.6 °F 76% 29.68 in 10.0 mi SW 10.4 mph - 0.01 in   Overcast
5:53 PM 42.8 °F 41.1 °F 33.8 °F 70% 29.66 in 10.0 mi SSW 3.5 mph - 0.01 in   Overcast
6:13 PM 42.8 °F 41.1 °F 35.6 °F 76% 29.64 in 10.0 mi WSW 3.5 mph - N/A   Overcast
6:33 PM 42.8 °F 39.3 °F 33.8 °F 70% 29.63 in 10.0 mi WSW 5.8 mph - N/A   Overcast
6:53 PM 44.6 °F 38.1 °F 32.0 °F 61% 29.66 in 10.0 mi WSW 13.8 mph 19.6 mph N/A   Mostly Cloudy
7:13 PM 44.6 °F 37.4 °F 32.0 °F 61% 29.65 in 10.0 mi West 16.1 mph 20.7 mph N/A   Mostly Cloudy
7:33 PM 42.8 °F 35.4 °F 32.0 °F 66% 29.66 in 10.0 mi SW 15.0 mph 18.4 mph N/A   Mostly Cloudy
7:52 PM 42.8 °F 36.2 °F 32.0 °F 66% 29.63 in 10.0 mi WSW 12.7 mph - N/A   Scattered Clouds
8:12 PM 42.8 °F 36.6 °F 32.0 °F 66% 29.62 in 10.0 mi West 11.5 mph - N/A   Clear
8:32 PM 41.0 °F 36.4 °F 32.0 °F 70% 29.61 in 10.0 mi West 6.9 mph - N/A   Clear
8:52 PM 37.4 °F 32.8 °F 32.0 °F 81% 29.61 in 10.0 mi NW 5.8 mph - N/A   Clear
9:12 PM 39.2 °F 34.2 °F 33.8 °F 81% 29.63 in 10.0 mi NW 6.9 mph - N/A   Mostly Cloudy
9:32 PM 39.2 °F 35.0 °F 33.8 °F 81% 29.63 in 10.0 mi West 5.8 mph - N/A   Overcast
9:52 PM 39.2 °F 33.6 °F 32.0 °F 75% 29.64 in 10.0 mi West 8.1 mph - N/A   Scattered Clouds
10:11 PM 37.4 °F 30.3 °F 32.0 °F 81% 29.65 in 10.0 mi West 10.4 mph - N/A   Clear
10:33 PM 37.4 °F 30.3 °F 32.0 °F 81% 29.65 in 10.0 mi West 10.4 mph - N/A   Clear
10:53 PM 37.4 °F 31.4 °F 32.0 °F 81% 29.65 in 10.0 mi West 8.1 mph - N/A   Clear
11:13 PM 35.6 °F 28.0 °F 32.0 °F 87% 29.65 in 10.0 mi WSW 10.4 mph - N/A   Clear
11:32 PM 37.4 °F 28.9 °F 28.4 °F 70% 29.65 in 10.0 mi WSW 13.8 mph - N/A   Clear
11:53 PM 37.4 °F 29.3 °F 26.6 °F 65% 29.63 in 10.0 mi West 12.7 mph - N/A   Clear